Powrót do katalogu

OLYMPUS 1

AktywnyŁącznośćGEO
NORAD 20122·PAYLOAD·🇪🇺 EU

Wystrzelony Jul 12, 1989 z Guiana Space Centre

Loading…

TLE

ŚwieżeSource: Space-Track

Epoka: Sep 14, 2026, 11:55 UTC

1 20122U 89053A   26257.49715253  .00000053  00000-0  00000-0 0  9998
2 20122  12.1491 333.2850 0011961 337.6682  57.2792  1.01366602121779

Śledź OLYMPUS 1 w czasie rzeczywistym z AllMySat

Download on the App Store